Weather History for Iwojima, Japan

Change the Weather History Date:

Friday, October 19, 2012

  Actual Average Record
Temperature  
Mean Temperature 80 °F -  
Max Temperature 84 °F 78 °F 86 °F (2005)
Min Temperature 77 °F 74 °F 73 °F (2006)
Cooling Degree Days 16    
Growing Degree Days 30 (Base 50)    
Moisture  
Dew Point 75 °F    
Average Humidity 81    
Maximum Humidity 94    
Minimum Humidity 70    
Precipitation  
Precipitation 0.00 in - - ()
Sea Level Pressure  
Sea Level Pressure 29.93 in    
Wind  
Wind Speed 12 mph ()    
Max Wind Speed 17 mph    
Max Gust Speed 36 mph    
Visibility 6.1 miles    
Events Rain    
Averages and records for this station are not official NWS values.
T = Trace of Precipitation, MM = Missing Value Source: Averaged Metar Reports

Daily Weather History Graph

Daily Weather History Graph

Search for Another Location

Airport:

Trip Planner

Search our weather history database for the weather conditions in past years. The results will help you decide how hot, cold, wet, or windy it might be!

Date:

Astronomy

Oct. 19, 2012 Rise Set
Actual Time 6:34 AM ChST 6:04 PM ChST
Civil Twilight 6:11 AM ChST 6:27 PM ChST
Nautical Twilight 5:44 AM ChST 6:54 PM ChST
Astronomical Twilight 5:18 AM ChST 7:20 PM ChST
Moon 10:17 AM ChST (10/19) 9:22 PM ChST (10/19)
Length of Visible Light 12h 15m
Length of Day
11h 29m
Waxing Crescent, 18% of the Moon is Illuminated
Oct 19
Waxing Crescent
Oct 22
First Quarter
Oct 30
Full
Nov 7
Last Quarter
Nov 14
New

Hourly Weather History & Observations

Time (ChST) Temp. Heat Index Dew Point Humidity Pressure Visibility Wind Dir Wind Speed Gust Speed Precip Events Conditions
1:00 AM 78.8 °F - 73.4 °F 83% 29.92 in 6.2 mi SSW 15.0 mph - N/A   Scattered Clouds
4:00 AM 78.8 °F - 73.4 °F 83% 29.89 in 6.2 mi SSW 13.8 mph - N/A   Scattered Clouds
6:00 AM 78.8 °F - 75.2 °F 89% 29.92 in 6.2 mi SSW 12.7 mph - N/A   Mostly Cloudy
6:22 AM 78.8 °F - 75.2 °F 89% 29.92 in - SSW 13.8 mph - N/A Rain Light Rain Showers
6:32 AM 78.8 °F - 75.2 °F 89% 29.92 in 3.1 mi SW 17.3 mph 35.7 mph N/A Rain Light Rain Showers
6:48 AM 78.8 °F - 73.4 °F 83% 29.92 in 6.2 mi SW 13.8 mph - N/A   Mostly Cloudy
7:00 AM 78.8 °F - 73.4 °F 83% 29.92 in 6.2 mi SW 11.5 mph - N/A   Mostly Cloudy
8:00 AM 77.0 °F - 75.2 °F 94% 29.95 in 6.2 mi SW 10.4 mph - N/A   Scattered Clouds
9:00 AM 80.6 °F 86.2 °F 75.2 °F 84% 29.95 in 6.2 mi SW 13.8 mph - N/A   Scattered Clouds
10:00 AM 80.6 °F 86.2 °F 75.2 °F 84% 29.98 in 6.2 mi SW 15.0 mph - N/A   Scattered Clouds
11:00 AM 80.6 °F 87.1 °F 77.0 °F 89% 29.95 in 6.2 mi SW 12.7 mph - N/A   Scattered Clouds
12:00 PM 82.4 °F 90.9 °F 77.0 °F 84% 29.95 in 6.2 mi WSW 12.7 mph - N/A   Scattered Clouds
12:37 PM 84.2 °F 94.1 °F 77.0 °F 79% 29.92 in 6.2 mi West 12.7 mph - N/A   Mostly Cloudy
1:00 PM 82.4 °F 90.9 °F 77.0 °F 84% 29.92 in 6.2 mi West 10.4 mph - N/A   Mostly Cloudy
1:31 PM 84.2 °F 94.1 °F 77.0 °F 79% 29.92 in 6.2 mi West 12.7 mph - N/A   Scattered Clouds
2:00 PM 84.2 °F 94.1 °F 77.0 °F 79% 29.92 in 6.2 mi West 11.5 mph - N/A   Scattered Clouds
3:00 PM 84.2 °F 92.3 °F 75.2 °F 74% 29.89 in 6.2 mi NW 11.5 mph - N/A   Scattered Clouds
3:20 PM 84.2 °F 92.3 °F 75.2 °F 74% 29.89 in 6.2 mi NW 9.2 mph - N/A   Mostly Cloudy
4:00 PM 84.2 °F 92.3 °F 75.2 °F 74% 29.89 in 6.2 mi North 12.7 mph - N/A   Mostly Cloudy
4:11 PM 84.2 °F 92.3 °F 75.2 °F 74% 29.89 in 6.2 mi North 15.0 mph - N/A   Scattered Clouds
5:00 PM 82.4 °F 88.2 °F 73.4 °F 74% 29.92 in 6.2 mi North 12.7 mph - N/A   Scattered Clouds
6:00 PM 82.4 °F 87.2 °F 71.6 °F 70% 29.92 in 6.2 mi North 10.4 mph - N/A   Scattered Clouds
7:00 PM 80.6 °F 84.6 °F 71.6 °F 74% 29.95 in 6.2 mi North 10.4 mph - N/A   Scattered Clouds
10:00 PM 78.8 °F - 69.8 °F 74% 29.98 in 6.2 mi NNE 8.1 mph - N/A   Partly Cloudy